This is the latest recevied weather packets stored in our database for station/object DB5ZQ. If no packets are shown the sender has not sent any weather packets the latest 1 day(s).
| Time | Temp. | Humidity | Pressure | Rain* | Wind** | Luminosity | Snow |
|---|---|---|---|---|---|---|---|
| 1778102082 | 13.89° C | 77% | 1004.8 hPa | 0 mm | - | - | - |
| 1778101782 | 13.89° C | 76% | 1004.7 hPa | 0 mm | - | - | - |
| 1778100881 | 13.89° C | 76% | 1004.7 hPa | 0 mm | - | - | - |
| 1778099680 | 13.89° C | 77% | 1004.5 hPa | 0 mm | - | - | - |
| 1778098779 | 14.44° C | 77% | 1004.3 hPa | 0 mm | - | - | - |
| 1778097578 | 14.44° C | 76% | 1004.1 hPa | 0 mm | - | - | - |
| 1778096677 | 14.44° C | 76% | 1003.9 hPa | 0 mm | - | - | - |
| 1778095776 | 15° C | 75% | 1003.9 hPa | 0 mm | - | - | - |
| 1778095476 | 15° C | 75% | 1003.8 hPa | 0 mm | - | - | - |
| 1778094575 | 15° C | 75% | 1003.5 hPa | 0 mm | - | - | - |
| 1778093374 | 15.56° C | 76% | 1003.1 hPa | 0 mm | - | - | - |
| 1778092473 | 15.56° C | 77% | 1002.8 hPa | 0 mm | - | - | - |
| 1778091572 | 15° C | 76% | 1002.8 hPa | 0 mm | - | - | - |
| 1778091272 | 15° C | 77% | 1002.7 hPa | 0 mm | - | - | - |
| 1778090371 | 15.56° C | 77% | 1002.6 hPa | 0 mm | - | - | - |
| 1778089470 | 15.56° C | 76% | 1002.5 hPa | 0 mm | - | - | - |
| 1778089170 | 15.56° C | 76% | 1002.5 hPa | 0 mm | - | - | - |
| 1778088269 | 16.11° C | 76% | 1002.4 hPa | 0.25 mm | - | - | - |
| 1778087068 | 16.11° C | 76% | 1002.1 hPa | 0.51 mm | - | - | - |
| 1778085266 | 16.67° C | 76% | 1002 hPa | 1.27 mm | - | - | - |
| 1778084966 | 16.67° C | 76% | 1002.1 hPa | 1.27 mm | - | - | - |
| 1778084065 | 16.67° C | 76% | 1002 hPa | 1.02 mm | - | - | - |
| 1778083765 | 17.22° C | 76% | 1002 hPa | 1.02 mm | - | - | - |
| 1778083164 | 17.22° C | 75% | 1002 hPa | 0.51 mm | - | - | - |
| 1778082864 | 17.22° C | 75% | 1002 hPa | 0.51 mm | - | - | - |
* Rain latest hour (hover to see other rain measurements)
** Current wind speed in m/s (hover to see current wind gust speed)